Regional Weather Roundup
Issued by NWS

Home | Current Version | Previous Version | Graphics & Text | Print | Product List | Glossary Off
Versions: 1 2 3 4 5 6 7 8 9 10 11 12 13 14 15 16 17 18 19 20 21 22 23 24 25 26 27 28 29 30 31 32 33 34 35 36 37 38 39 40 41 42 43 44 45 46 47 48 49 50

000
ASUS43 KDMX 162101
RWRIA

WEATHER ROUNDUP FOR IOWA
NATIONAL WEATHER SERVICE DES MOINES IA
400 PM CDT WED AUG 16 2017

NOTE: "FAIR" INDICATES FEW OR NO CLOUDS BELOW 12,000 FEET WITH NO
SIGNIFICANT WEATHER AND/OR OBSTRUCTIONS TO VISIBILITY.

* - THESE STATIONS ARE NOT NWS STATIONS...THUS NOT UNDER NWS
QUALITY CONTROL.  THEY ALSO DO NOT REPORT WEATHER SUCH
AS PRECIPITATION OR FOG.

IAZ001>003-012>014-020>022-031>034-043>046-162200-
   NORTHWEST IOWA

CITY           SKY/WX    TMP DP  RH WIND       PRES   REMARKS
CARROLL *      CLOUDY    81  73  78 S14       29.72S HX  85
CHEROKEE *     CLOUDY    77  71  83 SW10      29.69F
DENISON *      MOSUNNY   81  70  69 SW10G18   29.74S HX  84
LE MARS *      PTSUNNY   72  68  88 SW9G16    29.69S
ORANGE CITY *  CLOUDY    75  72  88 SW10G16   29.68F
SHELDON *      PTSUNNY   72  70  94 SE12      29.67F
SIOUX CITY     CLOUDY    72  68  87 W9        29.73R
SPENCER        LGT RAIN  72  69  90 S8        29.69F
STORM LAKE *     N/A     73  70  88 S13       29.72F
$$

IAZ055>058-069>071-079>083-090>094-162200-
   SOUTHWEST IOWA

CITY           SKY/WX    TMP DP  RH WIND       PRES   REMARKS
ATLANTIC *     MOSUNNY   82  66  57 SW13G21   29.75R HX  85
AUDUBON *      MOSUNNY   82  72  69 SW9G17    29.75R HX  87
CLARINDA *     MOSUNNY   84  68  58 W12G20    29.80R HX  87
COUNCIL BLFS * PTSUNNY   82  68  61 SW15G21   29.75S HX  85
CRESTON *      MOSUNNY   82  72  69 SW13G18   29.79R HX  87
HARLAN  *      MOSUNNY   81  68  65 SW16      29.77S HX  83
LAMONI         MOSUNNY   82  70  66 SW13G22   29.79R HX  86
RED OAK *      MOSUNNY   82  68  61 W15G21    29.77R HX  85
SHENANDOAH *   PTSUNNY   82  68  61 SW12G18   29.78R HX  85
$$

IAZ047>049-059>061-072>074-084-162200-
   CENTRAL IOWA

CITY           SKY/WX    TMP DP  RH WIND       PRES   REMARKS
AMES           PTSUNNY   83  73  72 SE14G23   29.74F HX  89
ANKENY *       CLOUDY    81  70  69 S14G21    29.75F HX  84
BOONE *        CLOUDY    79  72  78 S10G20    29.74S HX  82
CHARITON *     MOSUNNY   82  72  69 S16G24    29.78S HX  87
DES MOINES     LGT RAIN  81  70  69 S10       29.75S HX  84
GRINNELL*      PTSUNNY   79  71  75 SE15      29.79F HX  82
KNOXVILLE *    PTSUNNY   84  72  65 S18       29.75F HX  89
MARSHALLTOWN   CLOUDY    81  73  76 S14       29.75F HX  86
NEWTON *       PTSUNNY   81  72  74 S14G22    29.77F HX  84
PELLA *        CLOUDY    82  69  64 S10G16    29.78F HX  85
PERRY *        CLOUDY    80  73  79 S9G20     29.74S HX  84
$$

IAZ004>006-015-016-023>025-035-036-162200-
   NORTH CENTRAL IOWA

CITY           SKY/WX    TMP DP  RH WIND       PRES   REMARKS
ALGONA *       CLOUDY    77  73  88 SE15      29.71F
CLARION *      CLOUDY    79  75  89 S10G16    29.72F HX  82
ESTHERVILLE    PTSUNNY   75  73  93 S10G20    29.70F
FORT DODGE *   CLOUDY    73  70  88 SE7       29.73F
MASON CITY     PTSUNNY   80  72  76 SE13      29.75F HX  84
FOREST CITY *  LGT RAIN  73  72  94 SE10      29.74F
WEBSTER CITY * CLOUDY    79  73  83 S8G15     29.71F HX  82
IOWA FALLS *   CLOUDY    77  72  83 SE12      29.76F
$$

IAZ007>011-017>019-026>030-037>042-050>054-066-162200-
   NORTHEAST IOWA

CITY           SKY/WX    TMP DP  RH WIND       PRES   REMARKS
CEDAR RAPIDS   MOSUNNY   80  72  76 S12       29.79R HX  84
CHARLES CITY * CLOUDY    81  72  74 SE15G21   29.77F HX  84
CLINTON *      CLOUDY    81  76  84 SE12      29.81F HX  87
DECORAH *      CLOUDY    79  70  73 E9G17     29.78F HX  81
DUBUQUE        CLOUDY    75  72  90 E15G23    29.83F
MONTICELLO *   CLOUDY    79  75  89 SE8G15    29.79S HX  82
OELWEIN *      CLOUDY    77  77 100 SE8       29.79F
WATERLOO       CLOUDY    79  72  79 SE9       29.75F HX  82
$$

IAZ064-065-067-068-078-162200-
   EAST CENTRAL IOWA

CITY           SKY/WX    TMP DP  RH WIND       PRES   REMARKS
DAVENPORT      PTSUNNY   82  72  71 SE10G25   29.81F HX  87
IOWA CITY      CLOUDY    82  73  74 S15       29.81R HX  87
MUSCATINE *    CLOUDY    84  72  65 S14G20    29.79R HX  89
QUAD CITIES    PTSUNNY   83  71  67 S14       29.78F HX  87
$$

IAZ062-063-075>077-085>089-095>099-162200-
   SOUTHEAST IOWA

CITY           SKY/WX    TMP DP  RH WIND       PRES   REMARKS
BURLINGTON     CLOUDY    83  73  72 S14G23    29.80F HX  89
FAIRFIELD *    PTSUNNY   82  70  65 S17G23    29.81R HX  86
FORT MADISON * MOSUNNY   82  73  74 S14       29.81S HX  88
KEOKUK *       CLOUDY    82  73  74 S13       29.79F HX  88
OSKALOOSA *    PTSUNNY   82  71  69 S15       29.80S HX  87
OTTUMWA        CLOUDY    83  71  67 S15G23    29.79R HX  87
WASHINGTON *   CLOUDY    82  73  74 S16       29.82R HX  88
$$

ABBREVIATIONS USED IN REMARKS
   TC - TEMPERATURES IN CELSIUS
  WCI - WIND CHILL INDEX
   HX - HEAT INDEX
  VSB - VISIBILITY
$$




USA.gov is the U.S. government's official web portal to all federal, state and local government web resources and services.